Location: Windsor
(43.2292°N, 89.3015°W)
Time: 10:09:12
(UTC+00:00)

Tiros 1 - Pass Details

Date: 06 June 2022
Orbit: 629 x 663 km, 48.4° (Epoch: 04 July)

Event Time Altitude Azimuth Distance (km) Brightness Sun altitude
Rises 05:15:49 0° 280° (W) 2,913 10.8 -23.5°
Reaches altitude 10° 05:18:13 10° 287° (WNW) 2,006 10.0 -23.6°
Maximum altitude 05:22:38 43° 360° (N) 887 8.3 -23.7°
Drops below altitude 10° 05:27:03 10° 72° (ENE) 2,014 9.8 -23.8°
Sets 05:29:29 0° 80° (E) 2,926 10.6 -23.8°
